Showing default

ORBCOMM FM 24, 25478

Orbit data source: Space-Track

ORBCOMM FM 24, 25478 is a payload satellite owned by Orbcomm (US) in LEO that was launched on Wed, 23 Sep 1998 UTC via a PEGASUS XL/HAPS launch vehicle from the Pegasus Launch, Eastern Range Air Space (ERAS). Payload-class satellites include a variety of spacecraft equipped with specific instruments for various scientific and technological missions. These include communications satellites like Starlink; space stations such as the ISS; scientific satellites like the Hubble; Earth observation satellites from companies like Planet Labs, Umbra, and HawkEye 360; GPS; miniature CubeSats for education and research; and military/defense satellites.

Loading next visibility...
Identifier
25478, 1998-053D
Orbit
LEO
Country
Flag of USUS / ORB
Related business
Manufacturer
OSC-Germantown
Mission
Non-operational Commercial Communications
Bus & Motor
MICROSTAR, Unknown motor
Mass
42 kg wet, 42 kg dry
Launch date (UTC)
1998-09-23 (27 years ago)
Launch vehicle
PEGASUS XL/HAPS
Launch site
Pegasus Launch, Eastern Range Air Space (ERAS)
Object type
Payload
Rocket body
Debris
Shape & HBR
Cyl + 2 Pan, 2.1 m
Radar Cross Section
1.484 m², Medium (>0.1 m² and < 1m²)

Expand to show TLE details & history
Last TLE update: 19 hours ago

TLE from 19 hours ago
0 ORBCOMM FM 24
1 25478U 98053D   25348.82641524  .00001058  00000-0  38816-3 0  9998
2 25478  45.0056 132.2775 0001803  90.1311 269.9744 14.38659773423454
Epoch: 2025-12-14T19:50Z
TLE epoch observation values (Epoch: 2025-12-14T19:50:02.276Z)
Latitude
-0.00004°
Longitude
111.03422°
Altitude
762.93 km
Speed
7.474 km/s
True Right ascension
08h 49m 06s
True Declination
0° 00' 00"
Sunlit
Object was in full shadow at epoch
Visualization orbit readout
Latitude
Unknown
Longitude
Unknown
Altitude
Unknown
Speed
Unknown
Apparent Right ascension
Unknown
Apparent Declination
Unknown
Sunlit
N/A
Visualization observer readout
Local Sidereal Time
13:22:49
Azimuth
Unknown
Elevation
Unknown
Doppler factor
Unknown
Orbital elements
Apogee altitude
765.763 km
Perigee altitude
763.188 km
Semi-major axis
7,142.613 km
Eccentricity
0.00018
Inclination
45.0056°
RAAN
132.2775°
Arg. of periapsis
90.1311°
True anomaly
269.95374°
Mean anomaly
269.9744°
Eccentric anomaly
269.96407°
Mean motion
3.59549 °/min
Orbital period
100.13 mins
BSTAR
0.00038816
Loading maneuver chart data...
Computing Atmospheric mass density...
Loading historical data...
Loading historical data...
Loading historical data...
Loading historical data...
Loading historical data...
Loading historical data...
Loading historical data...

Documentation

Showing up to 5 results
|